This is the latest recevied weather packets stored in our database for station/object K5MGY. If no packets are shown the sender has not sent any weather packets the latest 10 day(s).
| Time | Temp. | Humidity | Pressure | Rain* | Wind** | Luminosity | Snow |
|---|---|---|---|---|---|---|---|
| 1787879915 | 33.89° C | 38% | 1037.3 hPa | 0 mm | - | 0 W/m² | - |
| 1787879610 | 34.44° C | 38% | 1037.4 hPa | 0 mm | - | 0 W/m² | - |
| 1787879306 | 34.44° C | 38% | 1037.1 hPa | 0 mm | - | 0 W/m² | - |
| 1787879003 | 34.44° C | 38% | 1036.9 hPa | 0 mm | - | 1 W/m² | - |
| 1787878702 | 34.44° C | 37% | 1037.1 hPa | 0 mm | - | 2 W/m² | - |
| 1787878396 | 35° C | 37% | 1036.9 hPa | 0 mm | - | 4 W/m² | - |
| 1787878093 | 35° C | 38% | 1036.9 hPa | 0 mm | - | 5 W/m² | - |
| 1787877788 | 35° C | 38% | 1036.5 hPa | 0 mm | - | 7 W/m² | - |
| 1787877483 | 35.56° C | 37% | 1036.7 hPa | 0 mm | - | 10 W/m² | - |
| 1787877179 | 35.56° C | 38% | 1036.5 hPa | 0 mm | - | 13 W/m² | - |
| 1787876878 | 35.56° C | 37% | 1036.7 hPa | 0 mm | - | 15 W/m² | - |
| 1787876574 | 35.56° C | 37% | 1036.6 hPa | 0 mm | - | 17 W/m² | - |
| 1787876273 | 35.56° C | 36% | 1036.6 hPa | 0 mm | - | 19 W/m² | - |
| 1787875972 | 35.56° C | 36% | 1036.5 hPa | 0 mm | - | 18 W/m² | - |
| 1787875668 | 35.56° C | 37% | 1036.7 hPa | 0 mm | - | 16 W/m² | - |
| 1787875366 | 35.56° C | 37% | 1036.6 hPa | 0 mm | - | 14 W/m² | - |
| 1787875065 | 35.56° C | 37% | 1036.5 hPa | 0 mm | - | 14 W/m² | - |
| 1787874760 | 36.11° C | 37% | 1036.5 hPa | 0 mm | - | 14 W/m² | - |
| 1787874458 | 36.11° C | 38% | 1036.7 hPa | 0 mm | - | 14 W/m² | - |
| 1787874153 | 36.67° C | 37% | 1036.3 hPa | 0 mm | - | 16 W/m² | - |
| 1787873849 | 36.67° C | 36% | 1036.7 hPa | 0 mm | - | 21 W/m² | - |
| 1787873548 | 36.67° C | 36% | 1036.7 hPa | 0 mm | - | 28 W/m² | - |
| 1787873244 | 37.22° C | 36% | 1036.5 hPa | 0 mm | - | 30 W/m² | - |
| 1787872942 | 37.22° C | 36% | 1036.4 hPa | 0 mm | - | 31 W/m² | - |
| 1787872638 | 37.22° C | 36% | 1036.4 hPa | 0 mm | - | 33 W/m² | - |
* Rain latest hour (hover to see other rain measurements)
** Current wind speed in m/s (hover to see current wind gust speed)